Regional Weather Roundup
Issued by NWS Upton, NY

Current Version | Previous Version | Text Only | Print | Product List | Glossary Off
Versions: 1 2 3 4 5 6 7 8 9 10 11 12 13 14 15 16 17 18 19 20 21 22 23 24 25 26 27 28 29 30 31 32 33 34 35 36 37 38 39 40 41 42 43 44 45 46 47 48 49 50
427 ASUS41 KOKX 280709 RWROKX REGIONAL WEATHER ROUNDUP NATIONAL WEATHER SERVICE NEW YORK NY 300 AM EDT SUN MAY 28 2017 NOTE: "FAIR" INDICATES FEW OR NO CLOUDS BELOW 12,000 FEET WITH NO SIGNIFICANT WEATHER AND/OR OBSTRUCTIONS TO VISIBILITY. NYZ071-072-176-178-NJZ106-104-280800- NEW YORK CITY METRO AREA CITY SKY/WX TMP DP RH WIND PRES REMARKS Central Park CLOUDY 60 57 89 NE3 29.93S Wall St Helipt CLOUDY 60 57 89 NE6 29.92S Bronx Bot Gard N/A 59 55 88 NE1 29.91S LaGuardia APRT MOCLDY 61 56 83 E5 29.90S Kennedy INTL MOCLDY 59 58 96 E3 29.92S Breezy Point N/A 57 N/A N/A E5 N/A Newark/Liberty PTCLDY 60 57 89 E3 29.90S Teterboro PTCLDY 60 57 89 CALM 29.90S $$ NYZ177-179-078>081-280800- LONG ISLAND NEW YORK CITY SKY/WX TMP DP RH WIND PRES REMARKS Jones Beach N/A 57 N/A N/A SE5 N/A Matinecock PT NOT AVBL Farmingdale CLOUDY 58 56 93 SE3 29.92S MacArthur/ISP CLOUDY 59 57 93 SE6 29.93R Shirley CLOUDY 59 56 89 S5 29.94R Mt Sinai Harb N/A N/A N/A N/A CALM N/A Westhampton CLOUDY 57 52 83 SW3 29.95R East Hampton CLOUDY 53 51 94 E3 29.93R Montauk N/A 57 54 89 CALM 29.94S $$ NYZ052-065-067-280800- HUDSON VALLEY CITY SKY/WX TMP DP RH WIND PRES REMARKS White Plains MOCLDY 59 55 87 E3 29.91S Larchmont Harb N/A 59 N/A N/A NE5 N/A Croton O-T Hud N/A 61 N/A N/A MISG N/A Newburgh NOT AVBL Montgomery CLOUDY 59 57 93 CALM 29.90S Poughkeepsie CLOUDY 60 57 89 CALM 29.89S Albany CLOUDY 61 54 77 CALM 29.90S $$ NJZ001-105-106-008-010-013-015-019>022-104-280800- NEW JERSEY CITY SKY/WX TMP DP RH WIND PRES REMARKS Newark/Liberty PTCLDY 60 57 89 E3 29.90S Teterboro PTCLDY 60 57 89 CALM 29.90S Caldwell CLOUDY 60 56 86 CALM 29.91F Somerville PTCLDY 54 53 97 CALM 29.88F FOG Linden N/A 59 56 91 CALM 29.91S Perth Amboy N/A 57 N/A N/A E2 N/A Sussex CLOUDY 60 58 92 CALM 29.91F Andover N/A 59 57 93 CALM 29.90F Trenton CLEAR 57 56 96 N3 29.88F Millville CLOUDY 61 61 100 CALM 29.89S Atlantic City PTCLDY 60 57 89 CALM 29.90S Wrightstown MOCLDY 60 58 92 CALM 29.87F Toms River CLOUDY 59 57 93 CALM 29.89F Belmar PTCLDY 58 55 90 NE3 29.91F $$ PAZ047>061-062-071-280800- EASTERN PENNSYLVANIA CITY SKY/WX TMP DP RH WIND PRES REMARKS Philadelphia PTCLDY 62 59 90 S5 29.89F Allentown CLEAR 55 52 89 CALM 29.89F Scranton CLOUDY 61 56 83 NE7 29.89F $$ CTZ002-004>006-009-010-012-RIZ004-006-007-MAZ004-011-015-280800- SOUTHERN NEW ENGLAND IN CT CITY SKY/WX TMP DP RH WIND PRES REMARKS Bradley INTL CLOUDY 58 54 86 S5 29.92R Hartford CLOUDY 58 53 84 S5 29.92R Danbury CLOUDY 57 55 93 SE5 29.93R Wtrbury/Oxford N/A 55 50 82 CALM 29.94R Bridgeport CLOUDY 60 55 83 CALM 29.92S Meriden CLOUDY 56 54 93 CALM 29.93R New Haven CLOUDY 57 54 89 CALM 29.93R Chester CLOUDY 57 54 88 S3 29.93R Groton CLOUDY 56 52 86 CALM 29.93R Wilimantic CLOUDY 58 54 86 CALM 29.93S IN RI CITY SKY/WX TMP DP RH WIND PRES REMARKS Providence CLOUDY 56 55 97 S7 29.93F Block Island CLOUDY 55 53 93 S6 29.94S Westerly CLOUDY 57 54 89 CALM 29.94S IN MA CITY SKY/WX TMP DP RH WIND PRES REMARKS Boston CLOUDY 56 52 86 S10 29.90F Worcester CLOUDY 56 52 86 W7 29.92R Westfield NOT AVBL Provincetown PTCLDY 53 49 86 S5 29.94S Nantucket CLEAR 46 44 93 S5 29.93F FOG $$ ANZ330-335-338-340-345-350-353-355-280800- COASTAL MARINE OBSERVATIONS STATION/POSITION TIME SKY/WX TEMP WIND PRES VSBY WAVE AIR SEA DIR/SP/G HT/PER (UTC) (F) (DEG/KT/KT) (MB) (MI) (FT/S) NY HARB ENTRANCE 0550 58 58 150/ 6/ 6 1013.2 2/ 8 20 S FIRE ISLAND 0650 57 57 170/ 10/ 10 1012.6 2/ 7 GREAT SOUTH BAY NOT AVBL 23 SSW MONTAUK P 0550 56 55 1013.5 2/ 8 15 E BARNEGAT LI 0600 59 N/A 2/ 8 HUDSON CANYON 0550 57 57 130/ 6/ 6 1013.3 2/ 8 KINGS POINT 0636 59 59 CALM / 1 1013.0 EXECUTION ROCKS 0645 60 N/A CENTRAL LI SOUND 0630 56 CALM / 2 N/A 1 EASTERN LI SOUND NOT AVBL ROBBINS REEF 0642 60 110/ 3/ 4 1013.4 $$ >>>>>>>>>>>>>>>>>>>>>>>>>>>> KEY <<<<<<<<<<<<<<<<<<<<<<<<<<< > < > SKY/WX - Sky Condition/Present Weather < > TMP - Temperature in Fahrenheit < > DP - Dew Point in Fahrenheit < > RH - Relative Humidity in Percent < > WIND - Direction (from) and Speed in MPH < > PRES - Mean Sea Level Pressure (inches of Hg) < > WCI - Wind Chill Index < > VSB - VISIBILITY IN MILES < > HX - HEAT INDEX < > TC - TEMPERATURE IN CELSIUS < > VRB - VARIABLE WIND DIRECTION < > < >>>>>>>>>>>>>>>>>>>>>>>>>>>> KEY <<<<<<<<<<<<<<<<<<<<<<<<<<<

USA.gov is the U.S. government's official web portal to all federal, state and local government web resources and services.